Regional Weather Roundup
Issued by NWS

Home | Current Version | Previous Version | Graphics & Text | Print | Product List | Glossary Off
Versions: 1 2 3 4 5 6 7 8 9 10 11 12 13 14 15 16 17 18 19 20 21 22 23 24 25 26 27 28 29 30 31 32 33 34 35 36 37 38 39 40 41 42 43 44 45 46 47 48 49 50

000
ASUS43 KFSD 310110
RWRSD

WEATHER ROUNDUP FOR SOUTH DAKOTA
NATIONAL WEATHER SERVICE SIOUX FALLS SD
800 PM CDT SUN AUG 30 2015

NOTE: "FAIR" INDICATES FEW OR NO CLOUDS BELOW 12,000 FEET WITH NO
SIGNIFICANT WEATHER AND/OR OBSTRUCTIONS TO VISIBILITY.


SDZ001>005-009-010-012>017-310200-
NORTHWEST AND NORTH CENTRAL SOUTH DAKOTA

CITY           SKY/WX    TMP DP  RH WIND       PRES   REMARKS
BUFFALO          N/A     80  54  40 N9        29.69S
FAITH            N/A     85  58  39 S6        29.70F
MOBRIDGE       CLEAR     82  63  52 SE12      29.63S HAZE
$$

SDZ012>016-024>037-041>051-057-063-072>074-310200-
SOUTHWEST AND SOUTH CENTRAL SOUTH DAKOTA

CITY           SKY/WX    TMP DP  RH WIND       PRES   REMARKS
RAPID CTY ARPT MOCLDY    81  59  47 NW5       29.75R
PIERRE         CLEAR     85  56  37 SE15      29.66F
CUSTER         LGT RAIN  75  47  36 SW10G21   30.03R
ELLSWORTH AFB  MOCLDY    87  57  35 NE3       29.73S
PHILIP         CLEAR     86  63  45 SE6       29.65F
PINE RIDGE     CLEAR     87  42  20 S9        29.76F
WINNER         FAIR      87  49  26 S20G29    29.74F
$$

SDZ004>011-016>023-039-040-310200-
NORTHEAST SOUTH DAKOTA

CITY           SKY/WX    TMP DP  RH WIND       PRES   REMARKS
ABERDEEN       PTCLDY    77  69  76 S17G25    29.72F
WATERTOWN      PTCLDY    72  65  78 S16       29.82F
BROOKINGS      PTCLDY    70  63  78 S12       29.88F
SISSETON         N/A     77  66  68 S12       29.75F
$$

SDZ017-020-022-023-036>040-048>070-310200-
SOUTHEAST SOUTH DAKOTA

CITY           SKY/WX    TMP DP  RH WIND       PRES   REMARKS
SIOUX FALLS    MOCLDY    70  65  84 S10       29.89F
HURON          PTCLDY    77  69  76 S16G25    29.77F
CHAMBERLAIN    PTCLDY    79  67  66 SE14G20   29.75F
MITCHELL       PTCLDY    76  67  73 SE15G22   29.82R
YANKTON        PTCLDY    72  66  83 SE9       29.87S
$$

ABBREVIATIONS USED IN REMARKS
   TC - TEMPERATURE IN CELSIUS
  WCI - WIND CHILL INDEX
   HX - HEAT INDEX
  VSB - VISIBILITY




USA.gov is the U.S. government's official web portal to all federal, state and local government web resources and services.